Flag for Russia Weather past 2 weeks in Khabarovsk, Russia

Now
59 °F

Sunny.


Feels Like: 60 °F
Forecast: 46 / 70 °F
Wind: 3 mph from Northeast

Location: Habarovsk

Current Time: May 25, 2015 at 8:40:39 PM

Latest Report: May 25, 2015 at 8:00 PM


Visibility: 10 mi

Pressure: 29.74 "Hg

Humidity: 45%

Dew point: 37 °F

Location of KhabarovskLocation

Historic Weather in Khabarovsk — Graph

°F

Khabarovsk temperature yesterday

Maximum temperature yesterday: 59 °F (at 12:00 PM)
Minimum temperature yesterday: 37 °F (at 4:30 AM)
Average temperature yesterday: 50 °F

Past Weeks' High & Low Weather Summary

 TemperatureHumidityPressure
High72 °F (May 10, 7:00 PM)100% (May 15, 6:30 PM)29.86 "Hg (May 15, 6:30 PM)
Low36 °F (May 17, 4:30 AM)21% (May 10, 7:30 PM)29.24 "Hg (May 12, 11:30 PM)
Average51 °F71%29.60 "Hg
* Reported May 10 7:00 PM — May 25 7:30 PM, Khabarovsk, Weather by CustomWeather, © 2015

Note: Actual official high and low records may vary slightly from our data, if they occured in-between our weather recording intervals... More about our weather records

Advertising

Khabarovsk weather history for previous 24 hours

 ConditionsComfort  
Time TempWeatherWind HumidityBarometerVisibility
7:30 PM
Mon, May 25
59 °FSunny.6 mph48%29.74 "Hg10 mi
7:00 PM61 °FPassing clouds.3 mph42%29.74 "HgN/A
6:30 PM61 °FPassing clouds.6 mph34%29.74 "HgN/A
6:00 PM63 °FPassing clouds.6 mph30%29.74 "HgN/A
5:30 PM63 °FPassing clouds.8 mph32%29.74 "HgN/A
5:00 PM63 °FSunny.6 mph34%29.74 "Hg10 mi
4:30 PM63 °FSunny.6 mph34%29.77 "Hg10 mi
4:00 PM63 °FSunny.8 mph32%29.74 "Hg10 mi
3:30 PM61 °FSunny.3 mph34%29.77 "Hg10 mi
3:00 PM61 °FSunny.6 mph31%29.77 "Hg10 mi
2:30 PM63 °FSunny.6 mph37%29.77 "Hg10 mi
1:30 PM59 °FPassing clouds.8 mph36%29.77 "HgN/A
1:00 PM59 °FSunny.8 mph34%29.77 "Hg10 mi
12:30 PM59 °FSunny.8 mph39%29.77 "Hg10 mi
12:00 PM59 °FPassing clouds.8 mph42%29.80 "HgN/A
11:30 AM57 °FPassing clouds.10 mph44%29.80 "HgN/A
11:00 AM59 °FSunny.10 mph45%29.80 "Hg10 mi
10:30 AM57 °FSunny.10 mph41%29.80 "Hg10 mi
10:00 AM57 °FSunny.13 mph44%29.80 "Hg10 mi
9:30 AM55 °FSunny.13 mph44%29.80 "Hg10 mi
9:00 AM55 °FSunny.13 mph44%29.80 "Hg10 mi
8:30 AM54 °FSunny.10 mph51%29.80 "Hg10 mi
8:00 AM52 °FSunny.13 mph58%29.80 "Hg10 mi
7:30 AM50 °FSunny.15 mph62%29.80 "Hg10 mi
7:00 AM48 °FSunny.13 mph71%29.80 "Hg10 mi
6:30 AM48 °FSunny.13 mph71%29.80 "Hg10 mi
6:00 AM46 °FClear.10 mph76%29.80 "Hg10 mi
5:30 AM46 °FPassing clouds.8 mph76%29.77 "HgN/A
5:00 AM46 °FPassing clouds.8 mph76%29.80 "HgN/A
4:30 AM45 °FPassing clouds.6 mph76%29.77 "HgN/A
4:00 AM46 °FPassing clouds.6 mph71%29.80 "HgN/A
3:30 AM48 °FPassing clouds.3 mph66%29.80 "HgN/A
3:00 AM48 °FPassing clouds.8 mph62%29.80 "HgN/A
2:30 AM48 °FPassing clouds.6 mph62%29.80 "HgN/A
2:00 AM50 °FPassing clouds.8 mph58%29.77 "HgN/A
1:30 AM50 °FPassing clouds.8 mph58%29.77 "HgN/A
1:00 AM50 °FClear.8 mph62%29.80 "Hg10 mi
12:30 AM50 °FClear.8 mph58%29.80 "Hg10 mi
12:00 AM50 °FClear.8 mph58%29.80 "Hg10 mi
11:30 PM
Sun, May 24
52 °FClear.8 mph54%29.80 "Hg10 mi
11:00 PM52 °FClear.6 mph58%29.80 "Hg10 mi
10:30 PM52 °FClear.8 mph58%29.80 "Hg10 mi
10:00 PM52 °FClear.3 mph62%29.80 "Hg10 mi
9:30 PM52 °FSunny.3 mph62%29.80 "Hg10 mi
9:00 PM52 °FSunny.3 mph62%29.80 "Hg10 mi
8:30 PM54 °FSunny.3 mph54%29.80 "Hg10 mi
8:00 PM54 °FSunny.1 mph54%29.80 "Hg10 mi
Weather by CustomWeather, © 2015

See weather overviewHow to use our weather pages